NOAA 16 DEB, 41398

Orbit data source: Space-Track

NOAA 16 DEB, 41398 is space debris in SSO originally from a launch on Thu, 21 Sep 2000 UTC launched from the Air Force Western Test Range (AFWTR). Debris objects in space refer to the collection of defunct objects orbiting the Earth. Examples of debris include non-operational satellites, rocket bodies, and fragments generated from explosions, collisions, or faulty payload assembly.

Loading next visibility...
Identifier
41398, 2000-055KB
Orbit
SSO
Country
Flag of USUS
Related business
Manufacturer
Unknown
Mission
Spacecraft
Bus & Motor
Unknown
Mass
Unknown
Launch date (UTC)
2000-09-21 (26 years ago)
Launch vehicle
Unknown
Launch site
Air Force Western Test Range (AFWTR)
Object type
Payload
Rocket body
Debris
Shape & HBR
Unknown shape, 0.1 m
Radar Cross Section
Medium (>0.1 m² and <1 m²)

Expand to show TLE details & history
Last TLE update: 8 hours ago

TLE from 8 hours ago
0 NOAA 16 DEB
1 41398U 00055KB  26237.29517010  .00003828  00000-0  12506-2 0  9997
2 41398  98.8277   2.6384 0013259  22.2785 337.8975 14.39126932544192
Epoch: 2026-08-25T07:05Z
TLE epoch observation values (Epoch: 2026-08-25T07:05:02.696Z)
Latitude
-0.00004°
Longitude
-77.1874°
Altitude
755.551 km
Speed
7.481 km/s
True Right ascension
00h 10m 33s
True Declination
0° 00' 00"
Sunlit
Object was in full shadow at epoch
Visualization orbit readout
Latitude
Unknown
Longitude
Unknown
Altitude
Unknown
Speed
Unknown
Apparent Right ascension
Unknown
Apparent Declination
Unknown
Sunlit
N/A
Visualization observer readout
Local Sidereal Time
06:01:45
Azimuth
Unknown
Elevation
Unknown
Doppler factor
Unknown
Orbital elements
Apogee altitude
767.986 km
Perigee altitude
749.061 km
Semi-major axis
7,136.66 km
Eccentricity
0.00133
Inclination
98.8277°
RAAN
2.6384°
Arg. of periapsis
22.2785°
True anomaly
337.84024°
Mean anomaly
337.8975°
Eccentric anomaly
337.86888°
Mean motion
3.59998 °/min
Orbital period
100 mins
BSTAR
0.0012506
Loading maneuver chart data...
Computing Atmospheric mass density...

Documentation

Showing up to 5 results
|